DW6400 Weather Reports


Display with metric or nautical units.
time (UTC)temp
F
wind
direction
speed
MPH
gust
MPH
rain 1hr
in
rain 24hr
in
rain mn
in
humidity
%
barometer
mb
20181116173124 43 131 0.0 1.0 0.00 0.00 0.00 44 1014.4
20181116171638 43 131 0.0 0.0 0.00 0.00 0.00 37 1014.5
20181116170202 43 131 0.0 0.0 0.00 0.00 0.00 41 1014.6
20181116164638 42 131 1.0 3.0 0.00 0.00 0.00 38 1014.7
20181116163109 41 131 0.0 3.0 0.00 0.00 0.00 40 1014.9
20181116161731 41 131 0.0 4.0 0.00 0.00 0.00 41 1015.1
20181116160221 40 131 1.0 3.0 0.00 0.00 0.00 42 1015.3
20181116154628 37 131 0.0 3.0 0.00 0.00 0.00 49 1015.3
20181116153112 35 131 0.0 0.0 0.00 0.00 0.00 56 1015.4
20181116151551 33 131 0.0 1.0 0.00 0.00 0.00 54 1015.5
20181116150114 33 131 0.0 1.0 0.00 0.00 0.00 58 1015.6
20181116144558 32 131 0.0 2.0 0.00 0.00 0.00 61 1015.5
20181116143134 32 131 0.0 1.0 0.00 0.00 0.00 59 1015.6
20181116141538 31 131 0.0 0.0 0.00 0.00 0.00 59 1015.6
20181116140035 31 131 0.0 1.0 0.00 0.00 0.00 56 1015.5
20181116134638 30 131 0.0 2.0 0.00 0.00 0.00 58 1015.6
20181116133037 30 131 0.0 2.0 0.00 0.00 0.00 59 1015.7
20181116131621 30 131 0.0 1.0 0.00 0.00 0.00 59 1015.6
20181116130048 31 131 0.0 0.0 0.00 0.00 0.00 59 1015.7
20181116124559 31 131 0.0 0.0 0.00 0.00 0.00 59 1015.8
20181116123040 32 131 0.0 2.0 0.00 0.00 0.00 59 1015.8
20181116121517 31 131 1.0 3.0 0.00 0.00 0.00 61 1016.0
20181116120035 31 131 0.0 3.0 0.00 0.00 0.00 63 1016.0
20181116114539 31 131 0.0 2.0 0.00 0.00 0.00 63 1016.1
20181116113014 31 131 0.0 1.0 0.00 0.00 0.00 62 1016.1
20181116111507 32 131 0.0 2.0 0.00 0.00 0.00 61 1016.3
20181116110005 33 131 1.0 4.0 0.00 0.00 0.00 61 1016.2
20181116104709 33 131 2.0 5.0 0.00 0.00 0.00 61 1016.2
20181116103200 33 131 2.0 3.0 0.00 0.00 0.00 60 1016.6
20181116101646 34 131 0.0 1.0 0.00 0.00 0.00 58 1016.8
20181116100149 35 131 0.0 0.0 0.00 0.00 0.00 56 1017.1
20181116094720 35 131 0.0 1.0 0.00 0.00 0.00 56 1017.3
20181116093147 35 131 1.0 3.0 0.00 0.00 0.00 56 1017.5
20181116091650 35 131 0.0 3.0 0.00 0.00 0.00 56 1017.7
20181116090152 35 131 3.0 8.0 0.00 0.00 0.00 58 1017.9
20181116084610 34 131 1.0 4.0 0.00 0.00 0.00 60 1018.0
20181116083109 35 131 0.0 2.0 0.00 0.00 0.00 57 1018.3
20181116081546 36 131 2.0 5.0 0.00 0.00 0.00 57 1018.5
20181116080109 36 131 2.0 4.0 0.00 0.00 0.00 57 1018.7
20181116074553 37 131 2.0 7.0 0.00 0.00 0.00 57 1019.0
20181116073056 36 131 1.0 4.0 0.00 0.00 0.00 57 1019.2
20181116071602 38 131 0.0 4.0 0.00 0.00 0.00 54 1019.3
20181116070034 39 131 1.0 9.0 0.00 0.00 0.00 53 1019.4
20181116064540 39 140 4.0 9.0 0.00 0.00 0.00 53 1019.4
20181116063026 37 139 3.0 8.0 0.00 0.00 0.00 57 1019.8
20181116061540 36 138 1.0 4.0 0.00 0.00 0.00 60 1019.9
20181116060032 35 138 1.0 3.0 0.00 0.00 0.00 61 1020.1
20181116054532 36 138 0.0 7.0 0.00 0.00 0.00 61 1020.1
20181116053058 34 138 1.0 4.0 0.00 0.00 0.00 62 1020.4
20181116051539 33 138 0.0 3.0 0.00 0.00 0.00 63 1020.5
20181116050102 33 138 0.0 0.0 0.00 0.00 0.00 62 1020.7
20181116044520 33 138 0.0 1.0 0.00 0.00 0.00 63 1020.8
20181116043032 33 138 0.0 3.0 0.00 0.00 0.00 63 1020.8
20181116041517 33 138 0.0 1.0 0.00 0.00 0.00 64 1020.8
20181116040030 33 138 0.0 0.0 0.00 0.00 0.00 63 1020.9
20181116034513 33 139 0.0 0.0 0.00 0.00 0.00 63 1020.9
20181116033020 33 138 0.0 0.0 0.00 0.00 0.00 63 1020.8
20181116031514 33 138 0.0 1.0 0.00 0.00 0.00 64 1021.0
20181116030022 33 138 0.0 2.0 0.00 0.00 0.00 64 1020.9
20181116024525 35 139 0.0 2.0 0.00 0.00 0.00 62 1020.9
20181116023038 36 138 0.0 0.0 0.00 0.00 0.00 59 1021.1
20181116021517 37 138 0.0 0.0 0.00 0.00 0.00 58 1021.1
20181116020036 38 138 0.0 0.0 0.00 0.00 0.00 56 1020.9
20181116014534 38 138 0.0 1.0 0.00 0.00 0.00 54 1020.7
20181116013013 40 139 0.0 0.0 0.00 0.00 0.00 49 1020.7
20181116011509 41 138 0.0 0.0 0.00 0.00 0.00 46 1020.6
20181116010020 42 138 0.0 0.0 0.00 0.00 0.00 45 1020.7
20181116004517 42 138 1.0 2.0 0.00 0.00 0.00 44 1020.6
20181116003009 44 138 0.0 0.0 0.00 0.00 0.00 42 1020.3
20181116001511 45 139 0.0 1.0 0.00 0.00 0.00 40 1020.1
20181116000009 47 139 0.0 1.0 0.00 0.00 0.00 39 1020.1
20181115234508 49 139 0.0 1.0 0.00 0.00 0.00 37 1020.0
20181115233002 50 138 0.0 2.0 0.00 0.00 0.00 34 1020.0
20181115230005 53 139 0.0 3.0 0.00 0.00 0.00 30 1019.8
20181115224709 54 138 1.0 2.0 0.00 0.00 0.00 28 1019.6
20181115223222 55 138 0.0 2.0 0.00 0.00 0.00 28 1019.6
20181115221702 55 138 1.0 4.0 0.00 0.00 0.00 27 1019.5
20181115220135 56 138 1.0 4.0 0.00 0.00 0.00 27 1019.5
20181115214742 56 139 1.0 3.0 0.00 0.00 0.00 27 1019.5
20181115213235 57 139 1.0 4.0 0.00 0.00 0.00 26 1019.5
20181115211726 57 138 1.0 4.0 0.00 0.00 0.00 25 1019.5
20181115210130 58 139 0.0 5.0 0.00 0.00 0.00 25 1019.6
20181115204643 58 139 1.0 4.0 0.00 0.00 0.00 25 1019.6
20181115203136 59 140 2.0 4.0 0.00 0.00 0.00 25 1019.7
20181115201639 60 141 1.0 4.0 0.00 0.00 0.00 23 1019.7
20181115200214 60 143 1.0 4.0 0.00 0.00 0.00 22 1019.7
20181115194645 60 146 2.0 4.0 0.00 0.00 0.00 23 1019.9
20181115193222 60 154 2.0 5.0 0.00 0.00 0.00 23 1020.1
20181115191613 60 157 2.0 3.0 0.00 0.00 0.00 23 1020.4
20181115190135 58 161 1.0 5.0 0.00 0.00 0.00 24 1020.5
20181115184627 57 355 0.0 2.0 0.00 0.00 0.00 23 1021.0
20181115183119 56 355 0.0 4.0 0.00 0.00 0.00 26 1021.2
20181115181603 54 41 0.0 3.0 0.00 0.00 0.00 27 1021.3
20181115180107 53 43 0.0 4.0 0.00 0.00 0.00 26 1021.7
20181115174522 52 136 1.0 3.0 0.00 0.00 0.00 27 1021.8